Theta_e
308 308 308 308 307 307 307 306 306 307 307 308 308 307 307 308 309 309 310 311 312 312 311 311 311 310 311 311 310 310 310 308 305 307 308 308 308 307 306 306 306 304 305
309 308 309 308 308 306 306 307 307 307 308 308 307 305 305 308 308 309 309 310 310 311 311 310 310 310 309 309 310 309 309 308 307 306 308 309 307 306 307 307 307 307 308
309 310 309 308 309 309 309 306 307 308 307 307 306 306 306 308 309 310 310 310 310 309 308 308 306 308 309 309 309 309 308 309 310 310 310 310 309 309 310 310 310 310 310
310 310 309 309 309 309 309 308 306 307 307 307 307 305 305 307 308 309 310 310 309 309 308 308 307 307 309 309 309 309 309 309 310 310 309 309 310 310 310 310 309 310 310
310 310 310 310 310 310 309 308 308 308 308 307 306 306 306 307 307 307 308 309 309 309 310 309 309 310 311 310 310 308 308 309 310 310 310 309 309 310 309 308 306 309 310
310 310 310 309 310 310 310 310 310 310 309 309 307 307 308 308 308 308 308 309 309 309 310 310 310 309 310 310 310 310 309 308 309 308 308 308 308 308 308 308 307 308 309
311 311 310 310 311 311 311 311 311 310 308 308 308 308 309 310 309 308 309 309 309 310 310 310 310 310 310 311 311 311 311 310 310 310 309 309 309 310 310 310 310 308 308
311 312 311 311 312 312 312 311 311 310 308 308 308 308 308 308 309 310 311 310 309 309 309 308 308 307 307 308 309 310 311 311 311 310 310 310 310 311 311 311 310 310 310
312 312 312 312 311 311 312 310 310 309 309 308 309 309 308 306 307 310 310 309 308 307 307 308 308 309 308 309 309 309 309 308 309 310 311 311 311 311 312 311 311 309 310
312 312 312 312 310 307 308 311 311 311 310 310 309 308 308 305 307 310 311 311 310 310 310 309 308 309 310 310 310 308 307 309 308 308 307 307 307 309 312 312 312 310 309
313 312 312 311 311 307 305 308 311 312 312 310 307 303 303 304 304 306 308 309 309 308 306 308 309 309 309 309 307 306 307 308 307 306 306 306 307 305 304 304 305 305 307
312 312 312 312 310 307 301 306 308 310 311 311 306 305 304 301 302 304 305 304 305 307 309 309 309 309 306 305 306 306 307 306 305 304 304 304 306 303 301 301 302 306 309
312 312 312 312 312 312 308 301 303 305 307 305 307 303 299 299 300 302 304 306 306 308 308 308 306 306 305 305 304 305 305 305 303 302 302 303 303 302 301 300 300 303 302
312 312 311 312 312 313 312 306 300 299 297 298 300 299 297 300 302 303 304 305 307 308 307 307 307 306 306 305 304 303 303 303 303 301 301 301 302 302 301 299 299 299 300
313 312 312 313 312 311 311 310 304 301 300 301 300 299 298 301 302 302 304 304 307 307 307 307 306 306 304 305 303 302 302 302 303 301 300 301 301 300 300 299 299 298 298
312 312 313 313 311 312 312 311 309 305 301 301 301 301 301 302 302 303 303 305 304 305 305 306 305 304 303 304 302 301 300 300 301 300 299 300 300 300 300 298 298 298 298
312 312 313 313 313 312 312 311 310 309 306 302 301 301 302 303 302 301 302 301 302 302 303 304 303 302 302 302 301 300 299 299 300 299 299 299 299 299 300 298 298 297 297
312 312 312 312 311 309 310 310 310 310 309 309 303 301 302 303 303 301 301 301 301 301 302 302 301 301 300 299 298 297 296 297 299 299 298 298 298 298 299 298 297 297 297
312 312 312 310 310 310 310 308 308 309 310 309 306 303 303 304 304 301 300 300 300 300 300 300 300 299 298 297 296 293 293 296 297 298 297 297 298 297 298 298 297 296 297
312 312 312 310 311 310 310 307 308 307 308 309 306 303 304 303 302 301 300 299 299 300 299 299 299 298 297 296 294 292 294 295 296 297 297 296 297 297 298 297 297 296 296
313 312 312 311 311 311 310 307 306 305 306 307 305 303 304 303 302 301 300 299 299 299 299 298 298 297 296 294 293 291 292 294 295 296 297 296 296 297 297 297 297 296 296
312 312 312 311 311 312 309 308 306 304 304 305 304 303 303 303 303 301 300 299 299 299 298 298 297 296 295 292 291 291 291 293 295 295 296 296 295 296 297 296 296 296 295
312 310 311 312 311 312 312 312 308 306 304 304 304 304 303 302 304 302 301 299 299 299 298 298 297 296 295 293 291 290 290 292 294 295 296 296 296 295 296 296 295 295 295
312 312 311 312 311 311 312 312 312 309 305 304 303 303 303 303 304 304 302 300 299 298 298 298 297 296 296 294 291 290 290 290 293 295 296 295 294 295 295 295 295 295 294
312 312 313 311 311 311 312 312 312 311 308 305 303 302 302 303 303 304 304 301 299 298 298 298 297 296 295 294 291 290 290 290 292 294 296 296 294 294 294 295 295 294 294
313 313 313 312 311 311 312 311 311 311 311 310 306 302 302 302 302 302 304 302 300 298 298 298 297 296 295 294 291 290 289 290 291 294 294 295 295 294 294 294 294 294 294
Wind_Speed
13 14 16 16 16 14 13 12 12 13 11 12 9 10 11 12 11 12 13 13 16 15 13 12 11 8 7 6 5 5 5 3 2 2 4 9 9 8 5 4 3 7 9
14 14 13 16 17 15 13 12 11 12 11 10 9 11 9 8 10 12 11 11 14 13 12 9 8 6 7 7 7 6 6 6 4 3 5 6 6 6 7 8 8 11 13
14 15 15 12 15 14 14 14 9 10 10 8 8 12 10 9 11 12 11 11 11 11 8 6 5 3 5 7 6 6 6 6 5 4 4 4 5 7 9 10 11 12 10
14 15 14 14 13 13 13 12 10 8 9 8 8 9 7 8 9 9 10 9 9 10 10 9 9 8 7 7 6 4 3 4 4 4 3 4 5 8 10 12 14 13 15
15 15 13 12 12 11 12 11 12 11 11 10 9 8 8 9 8 8 8 8 7 8 9 8 8 8 7 6 5 4 3 3 3 4 4 4 6 8 9 9 15 16 11
14 15 13 13 13 13 12 11 10 12 11 9 12 11 10 11 9 7 5 6 6 7 9 7 6 6 6 4 4 3 3 3 4 4 4 6 9 9 9 11 12 10 6
12 13 14 14 15 14 12 12 13 12 12 12 13 14 13 12 11 9 7 6 5 6 7 9 7 8 8 8 6 5 5 7 9 11 12 12 12 12 15 17 15 14 14
11 11 12 14 18 18 15 12 11 11 11 11 11 11 11 11 9 8 8 8 5 5 7 8 8 9 9 11 10 9 7 8 6 8 13 15 15 15 15 16 15 16 18
11 11 12 15 15 15 14 12 11 10 9 9 9 10 12 13 12 9 9 9 8 8 8 9 9 8 8 8 12 13 12 10 8 7 8 12 15 17 18 13 13 10 10
11 11 12 14 15 15 12 8 5 6 7 6 8 9 10 11 14 13 10 10 8 7 6 6 6 8 8 10 9 9 13 12 10 10 8 8 7 6 9 16 12 9 8
9 9 10 13 10 12 9 8 5 1 1 3 5 7 8 9 10 10 10 9 9 9 9 9 6 5 5 5 7 8 9 6 6 8 10 11 9 11 13 12 9 6 8
7 7 9 11 10 10 10 4 5 2 2 2 1 4 6 7 6 6 7 9 11 9 9 6 8 10 12 10 10 10 7 6 8 10 12 11 8 9 12 12 11 7 5
6 7 10 12 11 11 9 7 4 4 4 3 4 6 7 6 4 4 5 7 9 8 12 13 12 10 10 9 9 10 9 8 10 12 13 11 7 6 9 11 11 4 7
6 7 11 15 15 13 10 7 5 6 6 4 4 5 6 6 7 7 4 5 4 6 8 9 7 7 7 6 8 11 11 11 8 10 13 12 8 6 6 9 13 13 7
6 9 14 18 16 15 14 8 7 5 6 6 5 5 4 7 11 10 4 3 3 4 5 5 5 5 7 8 7 9 11 12 9 10 12 11 10 8 5 7 13 13 9
7 11 15 17 16 17 16 9 8 8 6 5 5 5 4 6 10 8 6 5 4 3 4 4 4 5 6 5 5 7 10 11 11 9 11 11 10 8 4 7 11 13 12
9 12 15 16 17 19 17 9 9 10 11 10 8 8 6 4 4 5 2 4 2 2 4 4 4 3 4 4 5 7 9 9 9 8 9 11 9 7 4 6 11 13 12
9 10 14 16 19 23 15 8 9 12 12 10 9 8 8 7 5 3 4 3 1 2 4 6 4 3 3 3 6 8 8 7 6 7 9 11 9 9 4 4 9 11 10
9 10 13 16 22 17 9 6 7 10 13 12 11 9 7 8 7 5 4 2 1 3 5 6 4 2 2 4 7 8 7 6 6 6 8 10 9 8 5 1 5 9 8
9 10 13 17 21 14 7 6 8 8 10 13 12 8 6 6 7 6 5 2 1 2 3 2 1 2 4 5 6 6 6 4 6 6 8 9 10 8 5 2 4 7 7
9 10 13 16 18 18 8 8 9 5 7 10 11 9 8 9 9 7 6 5 4 3 4 2 2 5 6 5 5 6 5 4 6 7 6 8 9 9 3 3 2 5 7
12 12 12 14 14 19 11 10 10 10 7 10 13 12 11 10 11 10 9 7 6 6 5 4 4 5 6 6 6 6 5 4 5 7 5 7 8 8 4 2 4 3 6
14 13 12 12 11 14 17 13 9 14 13 11 13 13 14 13 13 14 12 9 9 8 7 5 4 4 5 7 7 6 6 5 4 7 5 5 6 7 5 1 3 3 4
17 15 14 11 8 11 17 10 14 13 14 14 14 14 14 16 16 16 14 11 11 11 11 9 6 5 5 8 8 7 7 6 5 6 7 4 5 4 4 2 1 3 2
18 17 16 12 9 7 8 8 11 13 11 17 17 16 15 15 15 16 15 14 13 14 13 12 9 7 6 8 8 8 7 6 5 6 7 3 3 5 4 3 2 0 1
19 18 17 16 14 12 9 11 11 11 13 9 14 20 18 16 14 13 16 16 14 14 14 14 12 9 7 7 8 8 8 7 5 5 5 4 5 6 3 2 2 4 0
Wind_Direction
11 14 15 17 22 21 19 19 18 19 27 34 39 36 30 32 43 55 66 69 83 92 87 85 79 78 76 72 81 83 75 61 86 322 315 330 343 353 352 334 302 268 287
8 11 16 26 26 25 20 22 23 27 33 39 37 24 24 36 42 59 64 74 79 76 75 74 68 62 67 68 70 70 57 58 57 9 345 349 333 344 340 325 308 297 294
9 12 18 15 14 11 20 20 27 31 34 39 31 22 43 51 57 70 76 88 75 63 50 44 46 52 66 58 63 73 73 50 38 8 339 326 316 318 317 316 317 312 308
12 21 27 29 21 14 19 26 35 34 37 37 24 28 52 57 65 74 79 79 69 56 58 65 65 71 70 60 66 71 49 28 26 9 344 313 312 320 317 320 327 329 325
30 28 22 17 19 27 36 51 44 45 40 38 41 52 68 66 67 76 78 66 62 72 64 67 71 66 55 46 39 37 29 36 20 1 342 323 316 316 323 325 321 336 342
35 32 28 28 32 27 25 32 32 33 33 44 56 64 74 66 66 68 75 76 75 67 51 44 53 40 38 32 25 15 355 333 329 315 312 311 309 306 310 319 327 339 328
25 19 14 9 11 11 10 31 44 47 60 69 71 72 73 69 67 73 63 59 70 45 36 36 42 30 28 26 19 355 322 301 286 285 289 290 295 315 311 308 312 310 297
20 18 19 17 15 26 41 52 48 54 64 65 65 59 55 48 44 37 38 39 49 46 36 36 28 19 14 6 360 350 335 327 305 299 301 312 309 311 295 301 295 300 306
20 15 13 12 15 17 34 47 59 59 62 59 55 50 49 41 31 42 49 53 52 44 38 26 11 1 358 354 345 345 356 15 342 303 310 316 316 299 297 298 294 282 299
20 18 16 12 13 19 25 33 45 59 59 51 51 49 38 38 46 44 49 48 44 33 28 13 352 336 338 339 345 6 6 13 35 58 60 54 32 15 275 285 293 288 283
16 12 18 8 356 2 355 14 18 33 59 64 41 46 34 29 24 37 37 35 18 3 346 349 1 356 12 48 54 23 1 358 34 36 30 22 32 50 45 35 19 335 295
3 9 3 3 15 6 10 346 357 9 258 269 334 353 5 9 17 17 13 15 7 357 27 63 71 88 93 78 58 39 37 42 40 31 27 24 24 45 40 29 14 346 325
1 352 344 350 352 342 342 5 329 302 303 317 295 321 345 356 12 11 360 6 14 85 86 92 104 92 81 69 51 43 46 43 36 29 20 21 23 43 39 39 36 59 62
352 345 349 348 349 349 318 304 340 359 349 317 310 325 357 23 21 7 2 10 52 95 105 103 94 82 69 64 58 47 41 35 35 31 23 22 38 33 38 44 33 16 359
347 344 345 343 347 351 349 281 278 320 352 5 17 11 19 33 15 358 12 13 98 110 101 113 93 63 45 44 57 45 34 29 27 34 28 24 28 30 48 48 30 16 19
333 340 343 345 347 346 340 333 253 256 283 299 325 0 17 9 15 47 54 96 105 139 118 105 87 55 36 32 54 35 28 24 22 33 37 28 26 27 45 49 27 22 19
315 332 338 342 341 341 340 312 277 245 251 272 285 295 311 342 354 9 31 65 103 174 103 115 102 63 51 77 46 22 13 11 13 31 38 30 29 30 45 45 25 17 14
320 329 332 335 342 344 331 296 272 257 253 266 270 278 269 276 278 318 311 300 29 73 118 127 109 97 94 39 5 353 346 349 8 28 39 31 32 30 32 47 26 16 14
306 324 333 341 342 340 331 319 286 267 256 259 270 294 250 267 243 261 294 331 54 110 119 118 105 88 7 349 351 355 358 9 13 26 38 34 28 27 20 92 28 26 24
294 321 337 342 345 343 329 289 276 269 264 248 252 268 250 224 231 244 254 258 148 146 145 132 68 352 330 336 346 355 5 20 24 25 35 31 24 23 20 99 28 20 20
294 315 336 343 355 356 322 296 272 265 279 250 236 241 237 245 247 244 246 242 240 219 211 233 318 342 340 337 342 350 1 14 19 16 25 28 21 20 29 74 32 24 29
287 303 323 343 350 1 341 291 276 272 271 253 239 236 235 249 246 245 246 240 237 239 240 269 325 342 348 348 347 347 345 344 7 15 22 19 15 12 15 59 39 21 32
275 285 307 334 332 335 343 359 304 284 260 263 244 245 243 248 246 241 242 243 240 240 241 250 293 335 349 351 342 339 339 334 335 354 346 351 355 4 15 51 44 34 40
268 279 285 300 330 305 324 320 346 315 259 257 243 245 248 250 247 244 242 242 242 239 236 240 254 290 328 340 337 332 332 330 320 329 322 309 345 342 3 1 33 53 49
255 264 269 275 294 269 325 325 299 295 281 255 248 248 248 246 250 246 242 243 245 244 240 238 245 265 308 332 334 330 327 325 319 323 317 258 327 323 308 351 287 97 58
253 255 256 271 272 285 289 288 317 305 292 305 269 252 250 248 251 255 239 241 245 250 246 240 241 255 288 324 330 327 325 318 309 299 320 295 288 309 269 319 338 243 325